Regional Weather Roundup
Issued by NWS Goodland, KS

Home | Current Version | Previous Version | Text Only | Print | Product List | Glossary Off
Versions: 1 2 3 4 5 6 7 8 9 10 11 12 13 14 15 16 17 18 19 20 21 22 23 24 25 26 27 28 29 30 31 32 33 34 35 36 37 38 39 40 41 42 43 44 45 46 47 48 49 50

000
ASUS43 KGLD 181108
RWRGLD

GOODLAND FORECAST AREA HOURLY WEATHER ROUNDUP
NATIONAL WEATHER SERVICE GOODLAND KS
500 AM MDT FRI APR 18 2014

...OFFICIAL OBSERVATIONS...

CITY           SKY/WX    TMP DP  RH WIND       PRES   REMARKS
GOODLAND KS    CLEAR     34  32  92 S18       30.08F
HILL CITY KS   CLEAR     37  34  89 S5        30.18S
IMPERIAL NEB   CLEAR     39  33  79 S8        30.04F
MCCOOK NEB     CLEAR     38  36  92 S9        30.12F
AKRON CO       CLEAR     39  33  79 S12       29.99F
BURLINGTON CO  CLEAR     38  33  82 S17       30.07S
LIMON CO       PTCLDY    26  26 100 CALM      30.06F
$$

...UNOFFICIAL OBSERVATIONS...

CITY           SKY/WX    TMP DP  RH WIND       PRES   REMARKS
COLBY KS       CLEAR     37  37 100 S10G18    30.12S
LENORA KS        N/A     37  32  82 S12         N/A
LEOTI KS         N/A     35  32  88 S9          N/A
NORTON KS      CLEAR     36  34  93 S7        30.14F
OBERLIN KS     FAIR      36  36 100 S8        30.12F
SHARON SPRINGS   N/A     34  30  86 S12         N/A
ST FRANCIS KS  CLEAR     36  32  87 SW13      30.06F
TRIBUNE KS     CLEAR     34 N/A N/A S9        30.13F
WAKEENEY KS      N/A     38  35  86 MISG        N/A
TRENTON NEB      N/A     35  32  89 S12         N/A
KIT CARSON CO    N/A     30  28  90 MISG        N/A
$$



USA.gov is the U.S. government's official web portal to all federal, state and local government web resources and services.